一网星座-0546星 (ONEWEB-0546)

导读 | 豆包AI

ONEWEB-0546是英国一网(OneWeb)公司的第二代低轨通信卫星,于2023年3月26日发射升空。该卫星隶属于OneWeb卫星星座,运行在1200公里近地轨道,依托Ku频段有效载荷提供高速互联网接入服务,旨在为全球偏远地区提供价格适宜的网络连接,第二代卫星还将新增导航定位功能,进一步拓展服务能力。

基本信息
目录编号:
56048
目录名称:
ONEWEB-0546
国际标识:
2023-043C
轨道中心:
EARTH
卫星名称:
一网星座-0546星
卫星全名:
一网星座-0546星 (ONEWEB-0546)
卫星状态:
在轨 (已飞行1105 天)
发射日期:
2023-03-26 UTC
国别 :
英国 (GB)
星等 :
--
轨道信息
数据来源 国际轨道数据
星历时间: 2026-04-04T04:24:49+0800
5小时前
查看轨道信息
半长轴: 7575.886km
偏心率: 0.0001035
轨道倾角: 87.905°
近地点辐角 93.046°
升交点赤经 243.545°
平近点角 267.079°
近地点: 1196.964km
远地点: 1198.534km
周期: 109.373分钟
每日圈数: 13.165965
详细信息
平衡模式:
三轴稳定
覆盖范围:
全球
运营商:
一网卫星公司
运营商所在国:
英国
制造商(研发单位):
一网卫星公司
制造商所在国:
英国
使用方式:
暂无
卫星简介
OneWeb卫星网络由648颗重约125公斤的微型卫星组成,运行在1200公里的轨道上。 每颗卫星都能够提供至少每秒8千兆位的吞吐量,以使用其高吞吐量的Ku频段有效载荷为家庭和移动平台提供互联网接入。该卫星仍在工作。
2D轨道图
3D轨道图
轨道高度分析图
轨道倾角分析图
轨道综合分析图
查看轨道综合分析图